記事タイトル:Comet C/2001 G1 

最新の情報は「更新」や「再読み込み」ボタンを押してリロードしてご覧ください。

書き込み欄へ  ヘルプ
お名前: poker calculator    URL

In your free time, check out some information dedicated to blackjack tables for sale blackjack tables for sale http://www.juris-net.com/plastic-poker-chips.html
roulette craps blackjack roulette craps blackjack http://www.juris-net.com/casino-web-site.html
belterra casino belterra casino http://www.juris-net.com/rueda-de-casino.html
black jack tabledesignlighting black jack tabledesignlighting http://www.juris-net.com/mirage-hotel-and-casino.html
effects of gambling effects of gambling http://www.juris-net.com/poker-gift-set.html
no limit poker online no limit poker online http://www.juris-net.com/custom-made-poker-chips.html
blackjack training blackjack training http://www.juris-net.com/dunes-casino-las-vegas.html
poker felt poker felt http://www.juris-net.com/customized-poker-chip.html
football online gambling football online gambling http://www.juris-net.com/redemption-slot-amusement-game.html
craps gambling craps gambling http://www.juris-net.com/poker-dogs.html
internet sport gambling internet sport gambling http://www.juris-net.com/baccarat-rules-.html
positive sides of gambling positive sides of gambling http://www.juris-net.com/diablo-2-gambling-hack.html
slot machines play free games slot machines play free games http://www.juris-net.com/gambling-terms.html
craps how to win with a friend craps how to win with a friend http://www.juris-net.com/basic-strategy-blackjack.html
caribbean stud poker caribbean stud poker http://www.juris-net.com/history-of-roulette-pennsylvania.html
casino chip manufacturer casino chip manufacturer http://www.juris-net.com/free-blackjack-tips.html
free online poker fake money free online poker fake money http://www.juris-net.com/craps-table-pictures.html
ho slot cars ho slot cars http://www.juris-net.com/gambling-times.html
compulsive gambling facts compulsive gambling facts http://www.juris-net.com/las-vegas-legal-gambling-age.html
betty boop slot machine betty boop slot machine http://www.juris-net.com/quit-gambling.html
new no deposit casinos new no deposit casinos http://www.juris-net.com/blackjack-money-mgmt.html
free roulette systems that work free roulette systems that work http://www.juris-net.com/blackjack%C2%A0%C2%A0strategy%C2%A0tips.html
blackjack simulator blackjack simulator http://www.juris-net.com/poker%C2%A0%C2%A0winning%C2%A0at%C2%A0blackjack.html
roulette results roulette results http://www.juris-net.com/free-palm-pilot-blackjack.html
roulette lyrics roulette lyrics http://www.juris-net.com/roulette-systems-online.html
live roulette live roulette http://www.juris-net.com/who-runs-the-1-million-keno-game-in-las-vegas.html
winning at slots winning at slots http://www.juris-net.com/how-to-play-canadian-blackjack.html
basic rules of poker basic rules of poker http://www.juris-net.com/black-jack-monster-truck.html
online strip blackjack online strip blackjack http://www.juris-net.com/free-video-craps-download.html
online gambling review online gambling review http://www.juris-net.com/magic-roulette.html
mirapex gambling mirapex gambling http://www.juris-net.com/roulette-beater.html
kewadin casino kewadin casino http://www.juris-net.com/black-jack-online-gambling.html
free online slots free online slots http://www.juris-net.com/red-light-roulette.html
superball video keno superball video keno http://www.juris-net.com/keno-history.html
free roulette down load free roulette down load http://www.juris-net.com/play-online-cash-keno-red-ball.html
... Thanks!!!

[2005年5月10日 23時50分39秒]

お名前: win at slot machines    URL

Please visit the sites about poker rules poker rules http://www.juris-net.com/poker-rules.html
mystic lake casino mystic lake casino http://www.juris-net.com/mystic-lake-casino.html
discount poker chips discount poker chips http://www.juris-net.com/discount-poker-chips.html
full tilt poker full tilt poker http://www.juris-net.com/full-tilt-poker.html
poker books poker books http://www.juris-net.com/poker-books.html
casino download casino download http://www.juris-net.com/casino-download.html
used poker chips used poker chips http://www.juris-net.com/used-poker-chips.html
gambling tips gambling tips http://www.juris-net.com/gambling-tips.html
real clay poker chips real clay poker chips http://www.juris-net.com/real-clay-poker-chips.html
new orleans casino new orleans casino http://www.juris-net.com/new-orleans-casino.html
strip poker girl strip poker girl http://www.juris-net.com/strip-poker-girl.html
casino turnkey casino turnkey http://www.juris-net.com/casino-turnkey.html
poker shop poker shop http://www.juris-net.com/poker-shop.html
legal gambling age legal gambling age http://www.juris-net.com/legal-gambling-age.html
craps table to buy craps table to buy http://www.juris-net.com/craps-table-to-buy.html
under age gambling under age gambling http://www.juris-net.com/under-age-gambling.html
best slot payout in atlantic city best slot payout in atlantic city http://www.juris-net.com/best-slot-payout-in-atlantic-city.html
vegas gambling vegas gambling http://www.juris-net.com/vegas-gambling.html
online gambling casinos online gambling casinos http://www.juris-net.com/online-gambling-casinos.html
ethics of gambling ethics of gambling http://www.juris-net.com/ethics-of-gambling.html
gambling photos gambling photos http://www.juris-net.com/gambling-photos.html
craps tournament rules craps tournament rules http://www.juris-net.com/craps-tournament-rules.html
multiple player blackjack and casino games multiple player blackjack and casino games http://www.juris-net.com/multiple-player-blackjack-and-casino-games.html
craps layout craps layout http://www.juris-net.com/craps-layout.html
gambling is bad gambling is bad http://www.juris-net.com/gambling-is-bad.html
benefits of legalized gambling benefits of legalized gambling http://www.juris-net.com/benefits-of-legalized-gambling.html
discount professional quality roulette wheel discount professional quality roulette wheel http://www.juris-net.com/discount-professional-quality-roulette-wheel.html
keno rules of play keno rules of play http://www.juris-net.com/keno-rules-of-play.html
never lose craps strategy never lose craps strategy http://www.juris-net.com/never-lose-craps-strategy.html
wildball keno wildball keno http://www.juris-net.com/wildball-keno.html
russian roulette documentary milton russian roulette documentary milton http://www.juris-net.com/russian-roulette-documentary-milton.html
black jack pc game black jack pc game http://www.juris-net.com/black-jack-pc-game.html
counting cards at black jack counting cards at black jack http://www.juris-net.com/counting-cards-at-black-jack.html
roulette instructions roulette instructions http://www.juris-net.com/roulette-instructions.html
basketball player die russian roulette basketball player die russian roulette http://www.juris-net.com/basketball-player-die-russian-roulette.html
...

[2005年5月8日 6時5分5秒]

お名前: 佐藤 裕久   
LONEOSの0.59-m Schmidt鏡で得られたCCD画像上、コップ座に17.4等で
発見され、NEO Confirmation Pageに公表された外見上の小惑星状天体が
他の精測位置観測者らのCCD画像で彗星あるのがわかった。
Klet 天文台(4月1.9日と2.9日UT;4月2.9日に9 " のコマ)では拡散状として、
El Leoncito (4月2.2日)、Heppenheim 、ドイツ(4月1.9日)や Reedy Creek、
Queensland(4月2.5日)では10 "のコマを観測した。
発見位置は次のとおり、

     2001 UT             R.A. (2000) Decl.        m2
     Apr.  1.19878   11 31 41.97   -21 01 28.7   17.4

Orbital elements:
    C/2001 G1
T 2001 Apr. 1.160 TT                                    Marsden
q   7.54645              (2000.0)            P               Q
                   Peri.  327.859       -0.942503       -0.129909
                   Node   209.869       +0.076622       -0.980811
e   1.0            Incl.   38.190       -0.325294       +0.145370
From 30 observations 2001 Apr. 1-2.

Ephemeris:
    C/2001 G1
Date    TT    R. A. (2000) Decl.     Delta      r     Elong.  Phase   m1    m2
2001 04 01    11 31.74   -21 02.4    6.621    7.546   156.3     3.1  16.9
2001 04 11    11 29.63   -20 12.5    6.653    7.547   151.2     3.7  16.9
2001 04 21    11 28.05   -19 20.6    6.713    7.547   143.8     4.5  16.9
2001 05 01    11 27.12   -18 28.8    6.797    7.549   135.5     5.4  16.9
2001 05 11    11 26.93   -17 38.9    6.903    7.551   126.7     6.2  17.0
2001 05 21    11 27.53   -16 52.5    7.028    7.553   117.8     6.8  17.0
2001 05 31    11 28.93   -16 10.8    7.166    7.556   108.9     7.3  17.1
2001 06 10    11 31.10   -15 34.6    7.315    7.559   100.1     7.6  17.1
2001 06 20    11 34.00   -15 04.5    7.470    7.563    91.4     7.7  17.2
2001 06 30    11 37.59   -14 40.6    7.626    7.567    82.8     7.7  17.2
2001 07 10    11 41.78   -14 23.0    7.781    7.572    74.4     7.4  17.2
2001 07 20    11 46.53   -14 11.5    7.931    7.578    66.2     7.0  17.3
2001 07 30    11 51.76   -14 05.6    8.073    7.584    58.0     6.5  17.3
2001 08 09    11 57.40   -14 05.1    8.203    7.590    49.9     5.9  17.4
2001 08 19    12 03.38   -14 09.2    8.319    7.597    42.0     5.1  17.4
2001 08 29    12 09.64   -14 17.6    8.418    7.604    34.2     4.3  17.4
(IAUC 7606、MPEC 2001-G03)
[2001年4月4日 0時19分31秒]

この記事への返信をどうぞ。
氏名
E-mail URL



記事一覧に戻る